Weather History for LEGE - October, 2013

Change the Weather History Date:

Wednesday, October 2, 2013

  Actual Average Record
Temperature  
Mean Temperature 74 °F -  
Max Temperature 85 °F 70 °F 113 °F (2014)
Min Temperature 62 °F 50 °F 48 °F (2011)
Cooling Degree Days 8    
Growing Degree Days 24 (Base 50)    
Moisture  
Dew Point 65 °F    
Average Humidity 81    
Maximum Humidity 100    
Minimum Humidity 43    
Precipitation  
Precipitation 0.00 in 0.10 in - ()
Sea Level Pressure  
Sea Level Pressure 29.86 in    
Wind  
Wind Speed 3 mph ()    
Max Wind Speed 9 mph    
Max Gust Speed -    
Visibility 6.3 miles    
Events      
Averages and records for this station are not official NWS values.
T = Trace of Precipitation, MM = Missing Value Source: Averaged Metar Reports

Daily Weather History Graph

Daily Weather History Graph

Search for Another Location

Airport or City:

Trip Planner

Search our weather history database for the weather conditions in past years. The results will help you decide how hot, cold, wet, or windy it might be!

Date:

Astronomy

Oct. 02, 2013 Rise Set
Actual Time 7:46 AM CEST 7:28 PM CEST
Civil Twilight 7:19 AM CEST 7:56 PM CEST
Nautical Twilight 6:46 AM CEST 8:28 PM CEST
Astronomical Twilight 6:14 AM CEST 9:01 PM CEST
Moon 5:02 AM CEST (10/2) 5:58 PM CEST (10/2)
Length of Visible Light 12h 37m
Length of Day
11h 41m
Waning Crescent, 7% of the Moon is Illuminated
Oct 2
Waning Crescent
Oct 5
New
Oct 12
First Quarter
Oct 19
Full
Oct 27
Last Quarter

Hourly Weather History & Observations

Time (CEST) Temp. Heat Index Dew Point Humidity Pressure Visibility Wind Dir Wind Speed Gust Speed Precip Events Conditions
12:00 AM 68.0 °F - 64.4 °F 88% 29.80 in 6.2 mi Variable 1.2 mph - N/A   Partly Cloudy
12:30 AM 68.0 °F - 64.4 °F 88% 29.80 in 6.2 mi NE 2.3 mph - N/A   Partly Cloudy
1:00 AM 68.0 °F - 64.4 °F 88% 29.80 in 6.2 mi Calm Calm - N/A   Partly Cloudy
1:30 AM 68.0 °F - 64.4 °F 88% 29.80 in 6.2 mi NNW 3.5 mph - N/A   Partly Cloudy
2:00 AM 69 °F - 64 °F 79% 29.80 in 12 mi NNW 2.3 mph - -   Scattered Clouds
2:00 AM 68.0 °F - 64.4 °F 88% 29.80 in 6.2 mi Calm Calm - N/A   Partly Cloudy
2:30 AM 64.4 °F - 62.6 °F 94% 29.83 in 6.2 mi NE 2.3 mph - N/A   Partly Cloudy
3:00 AM 64.4 °F - 62.6 °F 94% 29.80 in 6.2 mi Calm Calm - N/A   Partly Cloudy
3:30 AM 62.6 °F - 62.6 °F 100% 29.80 in 6.2 mi Calm Calm - N/A   Partly Cloudy
4:00 AM 64.4 °F - 62.6 °F 94% 29.80 in 6.2 mi Calm Calm - N/A   Partly Cloudy
4:30 AM 62.6 °F - 62.6 °F 100% 29.80 in 6.2 mi Variable 1.2 mph - N/A   Partly Cloudy
5:00 AM 64.4 °F - 64.4 °F 100% 29.83 in 6.2 mi NW 1.2 mph - N/A   Partly Cloudy
5:30 AM 64.4 °F - 62.6 °F 94% 29.83 in 6.2 mi North 3.5 mph - N/A   Partly Cloudy
6:00 AM 64.4 °F - 62.6 °F 94% 29.83 in 6.2 mi NNE 2.3 mph - N/A   Partly Cloudy
6:30 AM 64.4 °F - 64.4 °F 100% 29.83 in 6.2 mi Calm Calm - N/A   Partly Cloudy
7:00 AM 64.4 °F - 64.4 °F 100% 29.83 in 6.2 mi NW 3.5 mph - N/A   Partly Cloudy
7:30 AM 62.6 °F - 62.6 °F 100% 29.83 in 6.2 mi North 2.3 mph - N/A   Partly Cloudy
8:00 AM 62.6 °F - 62.6 °F 100% 29.83 in 6.2 mi Calm Calm - N/A   Partly Cloudy
8:30 AM 66.2 °F - 64.4 °F 94% 29.86 in - Variable 1.2 mph - N/A   Clear
9:00 AM 68.0 °F - 64.4 °F 88% 29.86 in - Variable 1.2 mph - N/A   Clear
9:30 AM 71.6 °F - 64.4 °F 78% 29.86 in - Variable 2.3 mph - N/A   Clear
10:00 AM 73.4 °F - 66.2 °F 78% 29.86 in 6.2 mi NNE 4.6 mph - N/A   Partly Cloudy
10:30 AM 75.2 °F - 64.4 °F 69% 29.89 in 6.2 mi NNE 4.6 mph - N/A   Partly Cloudy
11:00 AM 77.0 °F - 64.4 °F 65% 29.89 in 6.2 mi NE 5.8 mph - N/A   Partly Cloudy
11:30 AM 78.8 °F - 64.4 °F 61% 29.89 in 6.2 mi Variable 2.3 mph - N/A   Partly Cloudy
12:00 PM 78.8 °F - 62.6 °F 57% 29.89 in 6.2 mi NE 3.5 mph - N/A   Partly Cloudy
12:30 PM 78.8 °F - 62.6 °F 57% 29.89 in 6.2 mi NNE 3.5 mph - N/A   Partly Cloudy
1:00 PM 80.6 °F 81.5 °F 60.8 °F 51% 29.89 in 6.2 mi Variable 2.3 mph - N/A   Partly Cloudy
1:30 PM 80.6 °F 81.8 °F 62.6 °F 54% 29.89 in 6.2 mi Variable 2.3 mph - N/A   Partly Cloudy
2:00 PM 83 °F - 64 °F 43% 29.85 in 16 mi NNE 8.1 mph - -   Scattered Clouds
2:00 PM 80.6 °F 81.8 °F 62.6 °F 54% 29.89 in 6.2 mi NNE 5.8 mph - N/A   Partly Cloudy
2:30 PM 82.4 °F 83.4 °F 62.6 °F 51% 29.86 in 6.2 mi NNE 5.8 mph - N/A   Partly Cloudy
3:00 PM 82.4 °F 83.9 °F 64.4 °F 54% 29.86 in 6.2 mi NNE 3.5 mph - N/A   Partly Cloudy
3:30 PM 82.4 °F 84.6 °F 66.2 °F 58% 29.86 in 6.2 mi SE 3.5 mph - N/A   Partly Cloudy
4:00 PM 82.4 °F 84.6 °F 66.2 °F 58% 29.86 in 6.2 mi ESE 5.8 mph - N/A   Partly Cloudy
4:30 PM 80.6 °F 83.2 °F 68.0 °F 65% 29.86 in 6.2 mi SE 9.2 mph - N/A   Partly Cloudy
5:00 PM 77.0 °F - 68.0 °F 74% 29.86 in 6.2 mi SE 9.2 mph - N/A   Partly Cloudy
5:30 PM 75.2 °F - 68.0 °F 78% 29.86 in 6.2 mi SE 9.2 mph - N/A   Partly Cloudy
6:00 PM 75.2 °F - 68.0 °F 78% 29.86 in 6.2 mi SSE 6.9 mph - N/A   Partly Cloudy
6:30 PM 75.2 °F - 68.0 °F 78% 29.86 in 6.2 mi SE 8.1 mph - N/A   Partly Cloudy
7:00 PM 73.4 °F - 68.0 °F 83% 29.89 in 6.2 mi SE 6.9 mph - N/A   Partly Cloudy
7:30 PM 73.4 °F - 68.0 °F 83% 29.89 in 6.2 mi ESE 4.6 mph - N/A   Scattered Clouds
8:00 PM 74 °F - 69 °F 78% 29.87 in 7 mi East 4.6 mph - -   Mostly Cloudy
8:00 PM 73.4 °F - 68.0 °F 83% 29.89 in 6.2 mi East 3.5 mph - N/A   Mostly Cloudy
8:30 PM 71.6 °F - 68.0 °F 88% 29.92 in 6.2 mi NNE 4.6 mph - N/A   Mostly Cloudy
9:00 PM 71.6 °F - 68.0 °F 88% 29.92 in 6.2 mi NNE 5.8 mph - N/A   Mostly Cloudy
9:30 PM 69.8 °F - 68.0 °F 94% 29.92 in 6.2 mi NNE 5.8 mph - N/A   Mostly Cloudy
10:00 PM 69.8 °F - 69.8 °F 100% 29.92 in 4.3 mi NNE 4.6 mph - N/A   Mostly Cloudy
10:30 PM 69.8 °F - 69.8 °F 100% 29.95 in 3.1 mi NNE 5.8 mph - N/A   Mostly Cloudy
11:00 PM 69.8 °F - 69.8 °F 100% 29.95 in 2.5 mi North 4.6 mph - N/A   Mostly Cloudy
11:30 PM 69.8 °F - 69.8 °F 100% 29.95 in 2.5 mi NNE 3.5 mph - N/A   Mostly Cloudy